TimeEDT,TemperatureF,Dew PointF,Humidity,Sea Level PressureIn,VisibilityMPH,Wind Direction,Wind SpeedMPH,Gust SpeedMPH,PrecipitationIn,Events,Conditions,WindDirDegrees,DateUTC
12:30 AM,46.4,42.8,87,29.79,10.0,NNE,10.4,18.4,N/A,,Overcast,20,2011-10-02 04:30:00
12:53 AM,46.9,42.1,83,29.79,10.0,North,9.2,18.4,N/A,,Overcast,360,2011-10-02 04:53:00
1:53 AM,46.9,43.0,86,29.77,10.0,NNE,11.5,-,0.00,,Overcast,30,2011-10-02 05:53:00
2:53 AM,46.9,43.0,86,29.78,10.0,NNE,4.6,-,0.00,Rain,Light Rain,20,2011-10-02 06:53:00
3:53 AM,46.9,44.1,90,29.75,10.0,NNE,9.2,-,0.04,,Overcast,20,2011-10-02 07:53:00
4:00 AM,46.4,44.6,93,29.76,10.0,NNE,9.2,16.1,N/A,,Overcast,30,2011-10-02 08:00:00
4:53 AM,46.9,44.1,90,29.74,10.0,NNE,8.1,-,N/A,,Overcast,20,2011-10-02 08:53:00
5:53 AM,46.4,44.6,93,29.79,2.5,West,3.5,-,N/A,Rain-Thunderstorm,Rain,280,2011-10-02 09:53:00
6:04 AM,46.4,44.6,93,29.79,3.0,NNW,3.5,-,0.05,Rain,Rain,340,2011-10-02 10:04:00
6:12 AM,46.4,44.6,93,29.79,4.0,North,6.9,-,0.07,Rain,Rain,10,2011-10-02 10:12:00
6:29 AM,46.4,44.6,93,29.79,5.0,NNE,6.9,-,0.10,Rain,Rain,30,2011-10-02 10:29:00
6:48 AM,46.4,44.6,93,29.78,9.0,NE,8.1,-,0.12,Rain,Light Rain,40,2011-10-02 10:48:00
6:53 AM,46.9,45.0,93,29.77,10.0,NE,9.2,-,0.12,Rain,Light Rain,40,2011-10-02 10:53:00
7:53 AM,48.0,46.0,93,29.79,10.0,North,4.6,-,0.00,,Overcast,360,2011-10-02 11:53:00
8:00 AM,48.2,46.4,93,29.80,10.0,North,4.6,-,N/A,,Overcast,360,2011-10-02 12:00:00
8:53 AM,50.0,46.4,87,29.81,10.0,NNW,4.6,-,N/A,,Overcast,340,2011-10-02 12:53:00
9:53 AM,52.0,48.9,89,29.82,10.0,NNW,5.8,-,N/A,,Overcast,330,2011-10-02 13:53:00
11:50 AM,57.2,51.8,82,29.83,10.0,NNW,6.9,-,N/A,,Mostly Cloudy,330,2011-10-02 15:50:00
11:53 AM,57.0,51.1,81,29.83,10.0,NW,5.8,-,N/A,,Mostly Cloudy,310,2011-10-02 15:53:00
12:03 PM,59.0,51.8,77,29.83,10.0,North,5.8,-,N/A,,Scattered Clouds,360,2011-10-02 16:03:00
12:53 PM,63.0,52.0,67,29.80,10.0,Calm,Calm,-,N/A,,Partly Cloudy,0,2011-10-02 16:53:00
1:53 PM,64.0,51.1,63,29.78,10.0,Calm,Calm,-,N/A,,Partly Cloudy,0,2011-10-02 17:53:00
2:53 PM,66.9,46.0,47,29.78,10.0,SSE,9.2,-,N/A,,Scattered Clouds,150,2011-10-02 18:53:00
3:53 PM,64.9,44.1,47,29.78,10.0,SSE,8.1,-,N/A,,Partly Cloudy,160,2011-10-02 19:53:00
4:53 PM,64.9,45.0,48,29.79,10.0,Variable,5.8,-,N/A,,Overcast,0,2011-10-02 20:53:00
5:53 PM,63.0,44.1,50,29.81,10.0,South,4.6,-,N/A,,Mostly Cloudy,180,2011-10-02 21:53:00
6:53 PM,60.1,48.0,64,29.82,10.0,Calm,Calm,-,N/A,,Overcast,0,2011-10-02 22:53:00
7:53 PM,57.9,48.9,72,29.84,10.0,SW,3.5,-,N/A,,Mostly Cloudy,220,2011-10-02 23:53:00
8:53 PM,57.2,48.2,72,29.87,10.0,Variable,4.6,-,N/A,,Overcast,0,2011-10-03 00:53:00
9:53 PM,55.0,50.0,83,29.87,10.0,Calm,Calm,-,0.03,Rain,Light Rain,0,2011-10-03 01:53:00
10:53 PM,54.0,52.0,93,29.89,10.0,Calm,Calm,-,0.01,,Overcast,0,2011-10-03 02:53:00
11:53 PM,52.0,48.9,89,29.89,6.0,Calm,Calm,-,N/A,,Clear,0,2011-10-03 03:53:00
11:58 PM,51.8,48.2,88,29.90,1.5,Calm,Calm,-,N/A,,Clear,0,2011-10-03 03:58:00